SCP
4 4 4 3 2 2 2 2 1 1 1 1 2 2 1 1 1 1 1 0 0 0 0 0 0 0 0 0 0 0 0 0 0 1 1 1 1 1
4 3 3 3 2 2 2 2 2 2 1 1 1 2 1 1 1 1 1 1 0 0 0 0 0 0 0 0 0 0 0 0 0 1 1 1 1 1
3 3 3 2 2 2 2 2 2 2 2 1 1 2 2 1 1 1 1 1 1 0 0 0 0 0 0 0 0 0 0 0 0 0 0 1 1 0
2 2 2 1 1 1 2 2 2 2 2 1 1 1 1 1 1 1 1 1 1 0 0 0 0 0 0 0 0 0 0 0 0 0 0 0 0 0
2 2 1 1 1 1 1 2 2 1 1 1 1 1 1 1 1 1 1 1 1 1 0 0 0 0 0 0 0 0 0 0 0 0 0 0 0 0
1 1 1 1 1 1 1 1 1 1 1 1 2 1 1 1 2 1 2 2 2 1 1 1 1 0 0 0 0 0 0 0 0 0 0 0 0 0
1 1 1 1 1 1 1 1 1 1 2 2 2 2 2 2 2 2 2 2 2 2 2 2 1 1 0 0 0 0 0 0 0 0 0 0 0 0
1 1 1 1 1 1 1 1 1 1 1 2 2 2 2 2 2 2 1 2 2 2 3 2 2 1 1 0 0 0 0 0 0 0 0 0 0 0
0 0 0 0 1 1 1 1 1 1 1 1 2 2 2 2 2 2 2 1 1 2 2 1 1 1 0 0 0 0 0 0 0 0 0 0 0 0
0 0 0 0 1 1 1 1 1 1 1 1 1 1 1 2 2 2 2 1 1 1 1 1 0 0 0 0 0 0 0 0 0 0 0 0 0 0
0 0 0 0 1 1 1 1 1 1 1 1 1 1 1 1 1 2 2 2 1 1 0 0 0 0 0 0 0 0 0 0 0 0 0 0 0 0
0 0 0 0 0 0 0 0 0 1 1 1 1 0 0 1 1 2 2 2 1 1 0 0 0 0 0 0 0 0 0 0 0 0 0 0 0 0
1 1 0 0 0 0 0 0 0 0 0 1 1 1 1 1 1 2 2 2 2 2 1 1 0 0 0 0 0 0 0 0 0 0 0 0 0 0
1 1 0 0 0 0 0 0 0 0 0 0 1 1 1 1 1 2 3 3 3 2 2 1 1 0 0 0 0 0 0 0 0 0 0 0 0 0
1 1 0 0 0 0 0 0 0 0 0 0 0 1 1 1 1 2 2 2 2 2 2 1 1 0 0 0 0 0 0 0 0 0 0 0 0 0
0 0 0 0 0 0 0 0 0 0 0 0 0 0 1 1 1 1 1 1 1 1 1 1 1 0 0 0 0 0 0 0 0 0 0 0 0 0
0 0 0 0 0 0 0 0 0 0 0 0 0 0 1 1 1 0 0 0 0 0 0 0 0 0 0 0 1 1 1 0 0 0 0 0 0 0
0 0 0 1 1 0 0 0 0 0 0 0 0 0 0 0 0 0 0 0 0 0 0 0 0 0 0 0 0 1 1 0 0 0 0 0 0 0
0 0 0 0 0 0 0 0 0 0 0 0 0 0 0 0 0 0 0 0 1 1 0 0 0 0 0 0 0 0 0 0 0 0 0 0 0 0
0 0 0 0 0 0 0 0 0 0 0 0 0 0 1 1 1 1 1 1 1 1 0 0 0 0 0 0 0 0 0 0 0 0 0 0 0 0
1 1 1 1 1 0 0 0 0 0 0 0 1 1 1 1 1 1 1 1 0 0 0 0 0 0 0 0 0 0 0 0 0 0 0 0 0 0
1 1 1 1 1 1 1 1 1 1 0 0 1 1 1 1 1 1 1 0 0 0 0 0 0 0 0 0 0 0 0 0 0 0 0 0 0 0
1 1 1 2 2 2 2 2 1 1 1 1 1 1 1 1 1 1 1 0 0 0 0 0 0 0 0 0 0 0 0 0 0 0 0 0 0 0
Wind_Speed
1 1 1 0 1 1 2 3 2 2 1 1 1 1 2 3 3 3 4 7 7 6 6 7 6 6 6 6 6 6 5 5 5 5 5 5 4 3
2 2 2 1 0 1 1 2 2 2 1 1 1 2 3 3 4 4 5 8 9 7 8 7 7 7 7 6 6 5 5 5 5 5 5 5 5 4
2 2 2 2 1 1 1 1 1 1 2 2 2 3 3 3 3 3 4 4 7 9 8 8 7 7 7 7 6 6 5 5 5 5 5 6 6 6
4 4 3 2 2 2 1 2 2 2 3 4 3 3 3 3 3 2 3 4 5 9 8 9 8 8 7 7 6 6 5 5 5 6 6 6 6 7
5 4 4 3 3 2 2 2 3 3 3 4 4 3 2 2 2 3 4 2 4 7 7 7 7 7 7 7 7 6 5 5 5 6 6 6 6 6
6 5 5 4 4 3 3 3 3 4 4 4 4 3 2 2 1 2 2 2 2 3 4 5 6 6 6 6 6 6 5 5 4 4 4 4 5 5
6 7 7 8 9 6 4 4 3 2 3 4 4 3 3 1 1 1 2 2 3 2 2 3 4 3 4 5 5 5 4 4 4 3 3 3 3 3
6 6 6 7 8 9 10 9 7 3 2 2 3 3 2 1 1 0 1 1 2 1 0 2 2 2 2 3 6 4 3 2 2 2 1 1 1 1
5 4 5 6 5 6 7 6 7 8 5 2 3 2 2 1 0 1 1 1 2 2 1 1 1 1 1 5 7 5 3 1 1 0 0 0 1 1
5 5 5 5 5 4 5 6 6 5 4 3 4 3 3 2 1 1 1 2 2 2 1 1 0 0 1 3 8 5 4 3 2 2 2 2 2 3
5 5 4 5 6 3 4 5 4 4 6 6 6 5 5 4 3 1 0 1 1 2 0 2 1 1 1 2 5 8 5 4 4 4 4 4 4 5
4 5 7 6 5 4 2 3 3 2 3 4 4 3 3 3 1 2 2 2 1 0 2 2 2 1 1 1 1 3 4 6 7 6 6 5 5 6
3 4 5 5 4 4 2 2 2 1 2 2 3 3 2 2 2 1 1 3 3 2 2 2 3 2 2 1 1 1 1 2 3 5 7 7 6 6
2 3 5 5 4 2 2 2 2 5 1 1 1 1 1 1 1 1 0 1 2 3 2 3 3 3 4 3 2 1 2 2 2 3 3 5 7 8
2 5 4 5 5 4 2 2 4 2 1 1 0 1 1 1 0 1 2 3 3 2 0 2 3 3 4 4 4 3 3 3 2 3 4 3 3 3
4 5 6 5 4 1 4 4 2 1 2 1 0 0 0 1 1 1 1 1 2 1 2 2 2 4 5 5 4 4 4 3 3 3 4 4 3 3
3 4 5 4 4 3 2 2 2 2 2 1 2 1 1 1 1 1 2 2 2 1 1 1 2 3 4 5 5 5 4 4 4 3 4 5 4 3
3 3 3 3 3 2 2 3 2 2 2 2 2 2 2 2 2 2 2 3 3 2 2 2 2 3 4 3 3 6 5 4 4 3 5 5 5 3
5 3 3 2 2 3 3 3 2 2 2 2 2 2 2 3 2 2 2 3 3 3 3 3 3 4 5 5 1 3 5 5 5 4 4 5 5 4
5 4 4 3 3 3 3 3 2 3 3 3 3 2 3 3 3 3 2 3 3 3 3 3 3 4 6 7 6 4 4 5 5 5 5 5 5 3
4 4 4 3 3 3 3 3 2 2 2 3 2 2 2 2 2 3 3 1 4 4 4 4 3 4 6 6 6 5 3 4 4 5 6 6 6 5
3 3 3 3 3 3 3 3 3 3 3 3 3 2 3 3 3 4 3 3 3 4 5 5 4 4 6 6 7 6 5 3 5 7 7 6 6 7
3 3 3 3 3 3 3 3 4 3 3 3 3 3 3 3 3 3 3 4 4 4 5 5 4 5 6 6 6 6 7 6 5 4 4 7 9 9
Wind_Direction
341 335 305 291 217 202 202 208 213 209 189 130 87 67 81 65 58 73 78 77 81 82 83 84 85 84 83 81 80 79 77 76 71 63 52 45 38 36
8 11 346 356 69 139 205 225 233 208 170 106 94 88 75 96 77 76 86 96 80 79 80 79 78 76 76 77 77 76 73 71 71 66 58 51 45 46
18 37 37 24 41 62 151 171 139 121 134 125 114 92 84 81 92 92 96 97 91 80 82 81 80 79 77 75 73 70 69 69 70 67 60 52 44 44
38 44 46 56 67 60 60 73 88 103 138 134 124 117 107 99 92 87 91 88 95 90 86 84 84 82 77 72 68 65 63 63 62 60 56 53 52 51
51 51 49 56 54 61 67 77 94 105 115 125 116 111 108 101 114 98 90 89 109 118 116 106 97 89 83 76 71 69 68 67 65 61 58 56 54 53
56 52 49 51 52 59 73 77 87 106 114 121 119 120 115 123 138 136 126 120 100 106 105 113 118 117 103 93 84 77 74 74 72 66 59 54 52 50
68 63 61 55 44 36 51 73 94 109 117 118 120 122 108 115 120 133 116 132 117 103 126 128 136 131 129 124 103 85 76 75 70 69 68 62 56 50
78 78 87 80 72 64 56 53 46 61 83 104 107 103 104 95 49 86 122 122 110 98 170 112 103 107 114 103 102 101 93 91 85 79 76 70 55 44
74 72 75 82 91 94 92 92 72 50 36 41 85 84 99 88 6 106 66 39 51 72 286 117 124 118 130 107 127 139 146 158 157 150 168 234 260 265
77 77 78 78 67 77 101 97 93 79 61 65 71 67 73 56 296 291 196 169 152 95 333 304 42 246 152 130 147 163 179 201 215 224 228 242 260 261
81 72 76 89 47 9 102 103 101 111 99 75 58 70 67 50 350 309 302 239 161 114 41 297 310 252 191 161 155 174 192 210 222 228 236 244 254 258
112 100 70 60 52 7 102 112 113 105 113 126 132 150 147 134 153 316 322 312 307 93 78 295 297 295 264 159 149 174 201 203 213 222 228 234 249 265
130 119 99 87 72 31 11 72 49 305 161 153 146 142 144 141 148 149 327 322 325 353 42 297 305 310 305 300 259 251 268 248 222 218 217 219 229 257
124 112 107 121 108 68 57 49 300 274 213 156 136 119 120 117 110 117 136 330 335 339 348 323 306 314 304 299 294 284 279 277 278 280 264 200 220 230
87 77 111 162 177 161 160 241 248 237 236 213 141 105 97 69 321 187 190 202 217 237 287 302 302 307 294 297 306 306 300 291 281 291 289 274 258 242
171 159 180 197 216 181 183 201 219 300 306 294 284 270 198 174 224 274 262 219 227 195 171 213 270 291 292 299 294 297 295 294 297 296 300 293 281 269
192 197 199 191 195 189 192 201 218 202 222 270 274 252 245 249 257 273 283 276 268 277 266 223 232 250 267 283 293 296 293 291 295 305 288 285 284 282
235 217 212 217 224 216 211 204 213 230 243 252 267 280 276 270 270 272 271 278 286 293 302 301 289 277 265 234 267 292 293 298 300 293 291 293 297 297
227 228 224 230 239 238 235 233 227 217 245 249 255 266 272 273 274 272 273 282 286 294 303 300 297 294 294 298 264 251 297 304 303 301 294 291 295 303
229 230 228 229 236 245 247 247 242 228 224 240 248 259 269 275 278 280 282 301 297 300 302 304 304 306 303 305 305 285 240 282 302 304 303 297 293 285
215 223 233 237 237 236 243 249 255 258 261 261 258 273 278 280 285 287 286 270 283 292 294 293 299 265 273 280 283 285 277 211 249 289 301 299 297 290
230 232 235 240 238 239 233 235 233 232 231 245 260 267 269 273 270 274 289 289 281 286 291 292 285 274 277 282 288 294 295 278 223 221 246 272 293 300
223 229 229 228 226 228 229 229 234 235 238 251 253 258 268 270 276 279 282 284 290 294 295 295 294 285 283 283 288 294 299 295 286 265 238 216 226 242